Location: Unspecified
(0.0000°N, 0.0000°E)
Time: 18:10:35
(UTC+00:00)

Vanguard 3 - Pass Details

Date: 05 February 2023
Orbit: 509 x 3249 km, 33.3° (Epoch: 20 March)

Event Time Altitude Azimuth Distance (km) Brightness Sun altitude
Rises 16:41:59 0° 289° (WNW) 3,075 11.0 22.1°
Reaches altitude 10° 16:45:52 10° 323° (NW) 2,543 10.0 21.2°
Maximum altitude 16:48:04 12° 344° (NNW) 2,646 9.9 20.6°
Drops below altitude 10° 16:50:38 10° 5° (N) 3,084 10.0 20.0°
Sets 16:56:54 0° 33° (NNE) 4,798 10.7 18.5°
